Wind_Speed
35 33 29 25 23 23 24 26 28 29 27 27 25 23 22 22 21 20 19 17 17 16 16 15 15 16 16 17 18 19 19 16 14 15 15 17 17 16 16 18 16 17 19
32 35 31 28 25 24 24 26 28 29 28 27 24 22 22 21 21 21 19 17 16 17 17 18 18 17 17 16 17 18 18 18 18 18 17 18 19 18 18 17 19 21 23
33 34 34 32 28 25 25 24 29 30 29 27 26 23 22 21 21 22 20 17 17 20 21 21 21 19 20 20 19 19 18 18 19 17 19 17 20 20 22 23 24 24 24
35 33 34 33 31 28 25 26 27 30 31 30 30 26 24 23 23 23 22 19 19 18 19 20 21 21 21 21 21 21 20 20 22 20 19 20 19 20 22 24 22 20 21
35 35 30 33 34 31 28 27 27 29 32 32 31 29 27 25 24 22 21 19 19 20 21 22 22 23 22 21 22 22 23 22 20 20 23 22 22 20 20 20 22 23 23
30 35 35 31 35 32 31 28 30 30 30 31 32 31 29 28 27 23 22 21 20 20 22 22 24 25 24 23 23 24 24 24 26 26 27 25 25 25 24 24 22 22 22
29 31 32 31 28 31 33 33 31 33 32 33 31 32 32 29 27 23 24 23 22 17 24 23 24 24 24 24 23 24 27 26 25 25 30 31 33 27 26 28 28 28 29
26 29 30 27 20 20 31 34 33 32 33 33 32 32 31 29 27 24 23 24 22 18 18 25 25 27 27 27 24 24 25 26 26 26 27 26 26 27 29 31 32 35 36
25 29 27 32 25 29 38 40 34 30 30 31 30 29 28 26 23 23 23 25 25 25 26 24 26 26 27 26 26 24 25 24 21 20 21 22 24 27 30 32 31 29 28
19 24 27 32 28 35 44 44 44 30 30 29 28 29 28 26 22 21 23 27 27 25 25 25 24 23 23 23 20 18 17 17 15 16 18 19 19 20 23 24 23 20 18
15 21 23 25 38 30 34 25 33 34 28 28 29 28 27 25 25 23 22 22 21 22 23 21 21 21 18 14 12 12 14 15 14 12 9 9 11 12 12 12 11 10 10
14 18 19 20 26 31 34 38 32 29 27 25 26 26 26 26 25 23 22 19 19 20 21 22 19 17 14 14 15 14 12 10 8 7 5 2 2 5 7 9 11 11 11
7 17 18 18 18 21 26 34 39 35 29 25 24 24 26 25 21 22 21 18 20 21 22 21 20 17 16 15 12 10 10 10 8 7 5 3 4 6 7 8 8 8 10
10 8 13 16 17 17 18 22 24 28 25 23 21 22 22 22 20 19 20 20 21 21 19 17 17 17 15 12 12 13 13 11 9 8 6 3 3 4 5 6 7 6 5
10 11 9 13 19 22 22 23 20 16 15 18 20 21 21 23 22 20 19 20 20 19 17 17 17 16 15 15 16 15 12 9 8 9 7 5 2 1 1 1 1 1 2
17 14 12 12 18 22 23 19 17 9 5 15 22 18 19 21 19 19 20 19 17 16 17 16 16 16 16 18 18 15 11 7 9 11 10 7 5 5 5 5 4 3 4
16 16 13 17 15 24 27 23 27 11 19 23 22 21 19 17 21 21 19 18 17 18 17 18 17 17 18 18 16 13 11 10 8 9 12 12 11 11 9 8 6 5 5
16 17 20 20 20 33 33 31 29 15 29 32 25 24 21 21 21 20 19 18 20 21 17 17 17 17 16 16 15 14 12 12 11 9 10 12 13 13 11 10 8 7 7
23 24 23 29 28 33 32 31 33 33 23 28 32 29 25 24 22 20 18 19 19 20 20 17 17 16 15 13 12 13 15 13 12 11 10 9 11 13 10 10 10 11 10
20 21 24 30 29 31 37 35 35 43 27 32 36 32 29 28 29 28 24 23 22 20 21 20 17 16 16 15 14 14 14 14 14 13 11 9 9 11 12 10 10 10 10
20 21 25 28 27 30 30 33 27 25 28 30 35 32 26 25 29 29 24 24 24 19 18 18 17 17 18 18 17 16 14 13 13 12 10 8 9 10 10 11 10 11 11
22 19 20 25 27 26 34 25 20 23 25 26 25 26 21 23 23 26 23 24 23 23 19 19 18 18 19 18 17 14 13 12 11 11 10 8 8 9 10 10 11 12 12
23 20 20 19 21 22 30 24 23 23 24 25 24 26 25 24 23 22 20 20 20 21 22 19 18 17 17 18 16 16 15 13 11 10 11 11 11 11 10 10 10 11 12
20 21 17 17 22 22 33 32 25 27 26 24 27 27 22 18 17 18 16 15 16 18 17 17 17 15 15 15 14 15 14 13 12 12 13 13 12 12 12 13 14 14 14
14 18 19 22 20 26 31 29 34 27 27 26 30 26 22 18 16 16 13 14 17 17 15 14 13 16 19 17 15 13 14 15 15 16 15 16 18 18 16 15 15 16 18
17 18 19 20 18 21 34 28 29 27 27 32 27 25 22 18 17 15 14 16 18 20 16 14 13 15 18 18 17 16 15 15 17 18 17 19 19 18 18 19 20 21 21
Wind_Direction
226 227 226 228 226 226 223 217 214 211 213 217 221 228 231 233 237 241 247 254 259 258 260 261 267 276 274 272 274 268 264 265 268 280 285 291 288 286 283 277 269 270 272
225 229 228 229 228 227 225 219 213 210 210 215 222 226 227 231 235 242 246 251 256 262 267 268 267 270 273 271 273 271 264 265 271 276 278 287 293 287 280 277 271 276 276
226 229 229 231 231 229 226 220 215 210 210 212 215 218 222 228 235 237 241 252 259 268 270 274 268 270 272 270 268 268 268 267 273 273 278 283 288 288 289 285 280 280 278
227 230 229 228 234 229 228 221 217 214 214 214 216 220 223 227 234 239 245 251 265 270 271 267 264 267 276 277 266 267 270 271 276 278 278 281 282 284 285 287 284 282 283
226 226 231 228 233 234 231 226 221 219 220 222 224 225 224 227 230 232 237 251 265 267 268 268 265 267 272 272 267 267 271 272 270 273 275 277 277 281 283 286 281 286 282
223 228 231 232 232 235 235 234 226 224 224 225 227 228 227 229 233 235 241 248 255 262 264 264 266 268 268 266 262 262 266 270 273 274 275 276 279 287 287 284 283 284 284
232 229 230 227 229 239 241 238 237 229 226 227 229 232 233 234 237 239 241 243 245 260 270 267 263 265 267 266 265 262 262 264 269 273 272 275 281 286 284 287 286 284 283
236 232 227 220 218 243 248 243 239 238 233 233 235 239 243 244 245 242 239 236 242 251 245 253 259 259 260 265 264 264 266 266 268 270 272 275 279 284 287 287 287 287 287
234 227 227 210 212 215 220 247 242 240 237 236 236 238 240 239 239 237 235 235 241 243 251 254 253 259 261 262 263 260 266 266 266 266 267 275 283 287 287 288 287 286 287
238 232 231 212 209 209 216 229 243 243 241 238 236 235 236 240 239 235 234 238 246 249 253 257 261 268 266 265 261 246 249 258 264 272 278 284 287 292 295 293 292 292 292
247 242 234 226 213 220 215 211 234 241 235 238 235 236 236 237 239 239 237 241 242 252 258 258 262 264 255 246 237 242 254 265 267 269 266 283 296 306 309 309 314 315 312
253 248 244 239 224 225 226 218 243 238 229 233 236 236 236 238 245 245 241 235 239 244 252 254 252 254 249 250 260 258 255 248 220 217 228 248 337 18 33 40 44 51 57
257 242 243 242 235 219 211 212 214 229 227 229 237 238 247 244 239 236 229 234 247 247 248 248 248 247 247 246 241 227 200 184 188 191 192 137 79 70 60 41 43 50 61
307 289 245 244 240 232 218 213 214 222 227 236 240 240 237 239 234 226 237 236 239 246 241 230 227 230 231 222 205 184 179 179 183 192 188 167 121 88 70 66 60 80 56
300 279 256 238 237 228 222 219 217 228 246 256 246 246 243 238 233 244 239 238 240 236 225 219 218 213 208 194 185 185 187 190 202 208 199 185 179 197 248 311 21 13 7
272 303 264 252 235 235 226 197 182 173 279 278 255 236 233 233 236 230 229 227 222 215 208 207 204 201 198 195 190 193 203 226 232 222 215 214 229 252 263 265 281 280 282
264 284 283 253 235 198 202 172 149 269 274 263 251 236 224 223 219 215 216 217 212 206 201 196 198 198 194 193 197 212 230 238 241 229 228 234 241 251 256 257 265 259 270
255 251 267 249 235 204 209 238 236 191 222 230 220 216 205 200 210 210 210 208 205 200 197 193 189 187 191 201 215 227 227 233 249 242 246 241 240 242 242 243 248 250 255
267 246 241 242 234 228 229 237 224 209 205 217 207 199 197 201 202 208 211 217 217 212 205 198 198 202 208 216 221 220 226 230 234 244 243 245 241 242 234 237 244 247 247
260 236 231 239 235 229 226 230 227 219 214 215 207 199 194 201 208 207 211 216 220 222 221 217 214 212 214 213 210 209 213 228 240 247 239 234 240 239 231 238 243 244 248
241 236 229 232 234 228 222 218 221 217 210 211 208 206 198 201 215 219 220 225 225 220 224 224 224 224 220 211 206 212 218 225 232 227 220 222 227 235 243 239 241 246 243
237 230 224 231 235 231 230 224 220 207 206 205 202 201 195 199 209 221 221 229 230 231 229 230 225 218 209 206 207 212 219 217 210 208 213 224 234 235 234 238 243 248 248
225 223 223 229 234 240 236 216 214 210 205 203 199 193 188 201 210 216 212 219 227 228 225 216 208 205 203 203 210 212 207 215 218 221 224 231 240 247 252 256 258 256 253
223 227 224 238 231 241 237 236 214 212 204 200 193 185 176 190 201 206 197 203 207 207 204 202 205 209 209 202 206 209 217 229 235 243 250 248 251 258 255 257 261 262 263
225 233 244 245 256 238 223 229 222 205 196 190 188 182 180 189 196 198 188 199 198 196 200 201 204 209 208 215 213 220 230 238 242 252 259 257 255 252 252 258 261 265 262
253 249 248 257 254 237 219 214 202 192 189 190 187 188 192 201 210 204 202 204 203 194 194 200 199 204 200 208 222 240 248 250 250 254 256 258 263 266 268 268 269 267 268
Height
1512 1516 1520 1524 1527 1531 1533 1536 1540 1545 1550 1554 1557 1560 1562 1565 1568 1569 1570 1573 1574 1575 1575 1575 1577 1578 1578 1579 1579 1581 1581 1581 1581 1581 1580 1580 1579 1579 1577 1576 1576 1576 1575
1506 1510 1514 1519 1522 1525 1528 1531 1535 1539 1544 1549 1553 1555 1558 1561 1563 1565 1567 1570 1571 1572 1572 1572 1572 1573 1573 1574 1575 1576 1577 1578 1577 1577 1577 1576 1575 1574 1573 1572 1572 1571 1569
1500 1505 1509 1513 1516 1520 1523 1527 1529 1533 1538 1542 1547 1550 1553 1556 1559 1561 1563 1565 1567 1568 1568 1567 1568 1569 1569 1570 1570 1571 1573 1574 1573 1573 1572 1572 1570 1570 1568 1567 1566 1565 1564
1493 1498 1502 1507 1512 1516 1519 1522 1525 1529 1533 1536 1539 1543 1547 1551 1553 1556 1558 1560 1562 1562 1562 1562 1564 1565 1565 1565 1566 1567 1568 1569 1569 1568 1567 1566 1565 1563 1562 1561 1560 1559 1558
1486 1491 1496 1502 1506 1511 1515 1518 1521 1524 1528 1532 1535 1537 1540 1543 1546 1549 1553 1555 1557 1556 1557 1558 1558 1559 1560 1560 1560 1561 1562 1562 1562 1562 1561 1560 1558 1557 1557 1556 1554 1552 1551
1479 1484 1490 1496 1502 1508 1513 1515 1517 1519 1522 1526 1529 1532 1534 1536 1539 1543 1546 1548 1549 1549 1550 1552 1553 1554 1553 1554 1555 1555 1555 1554 1553 1554 1553 1552 1551 1550 1549 1548 1547 1546 1544
1475 1481 1486 1491 1498 1505 1510 1513 1514 1514 1516 1518 1522 1526 1527 1530 1533 1536 1539 1540 1541 1543 1542 1545 1547 1547 1546 1547 1547 1548 1547 1547 1546 1547 1545 1546 1545 1545 1542 1541 1541 1539 1537
1470 1473 1478 1485 1490 1497 1502 1505 1509 1511 1512 1512 1515 1520 1523 1525 1528 1531 1533 1534 1534 1534 1534 1537 1539 1539 1540 1541 1541 1542 1541 1541 1541 1541 1541 1541 1540 1539 1537 1535 1533 1530 1528
1464 1468 1471 1475 1479 1489 1493 1498 1505 1507 1508 1508 1510 1513 1516 1519 1522 1525 1528 1529 1529 1530 1530 1532 1533 1534 1534 1536 1536 1536 1536 1536 1536 1536 1536 1536 1535 1533 1530 1528 1525 1523 1519
1460 1463 1467 1470 1474 1477 1486 1493 1500 1502 1504 1505 1506 1507 1509 1513 1517 1519 1522 1522 1524 1526 1527 1527 1528 1528 1528 1529 1529 1530 1531 1531 1531 1531 1531 1530 1529 1527 1524 1521 1518 1515 1514
1457 1458 1461 1466 1473 1477 1484 1488 1491 1495 1498 1499 1501 1502 1504 1507 1510 1513 1515 1517 1519 1520 1521 1522 1523 1523 1523 1524 1525 1526 1527 1527 1527 1527 1526 1526 1525 1523 1521 1517 1514 1512 1511
1453 1454 1454 1457 1466 1473 1477 1481 1480 1478 1491 1495 1497 1497 1498 1501 1504 1508 1509 1511 1514 1516 1516 1518 1518 1519 1520 1520 1520 1522 1522 1523 1524 1524 1524 1524 1523 1521 1520 1517 1515 1513 1511
1448 1450 1449 1452 1457 1466 1473 1474 1476 1481 1485 1488 1490 1491 1494 1496 1498 1501 1504 1506 1508 1509 1510 1512 1513 1514 1515 1515 1516 1518 1519 1520 1522 1523 1523 1522 1521 1520 1519 1518 1517 1515 1514
1442 1444 1445 1447 1450 1457 1463 1469 1472 1475 1477 1480 1483 1484 1488 1490 1492 1495 1498 1500 1502 1502 1503 1504 1507 1509 1510 1512 1514 1515 1517 1518 1520 1521 1521 1521 1520 1519 1519 1518 1518 1517 1517
1440 1441 1440 1440 1445 1447 1451 1456 1462 1467 1471 1472 1476 1479 1482 1484 1486 1489 1492 1494 1496 1497 1498 1499 1501 1504 1506 1509 1511 1514 1515 1516 1517 1519 1519 1518 1518 1519 1519 1518 1518 1517 1517
1437 1438 1435 1439 1443 1445 1447 1449 1454 1459 1464 1469 1472 1473 1475 1479 1482 1484 1487 1489 1491 1493 1493 1496 1498 1501 1504 1506 1509 1512 1513 1513 1514 1515 1516 1515 1516 1517 1517 1516 1515 1515 1515
1434 1433 1432 1437 1437 1441 1441 1443 1445 1451 1458 1465 1467 1468 1468 1473 1477 1479 1482 1485 1487 1489 1490 1491 1493 1496 1500 1503 1507 1509 1510 1510 1511 1511 1511 1512 1513 1514 1514 1513 1512 1512 1513
1427 1427 1429 1432 1434 1436 1436 1439 1438 1429 1442 1454 1457 1461 1463 1467 1473 1476 1478 1482 1483 1484 1487 1488 1491 1493 1497 1500 1503 1506 1507 1506 1508 1509 1509 1508 1508 1509 1510 1510 1510 1509 1509
1419 1420 1418 1424 1426 1430 1432 1433 1433 1431 1437 1445 1451 1454 1456 1463 1468 1472 1475 1478 1480 1482 1484 1486 1488 1490 1493 1496 1499 1501 1502 1504 1504 1505 1505 1505 1505 1504 1505 1506 1506 1505 1505
1410 1410 1413 1417 1420 1423 1424 1426 1428 1431 1436 1439 1447 1444 1444 1453 1461 1464 1467 1471 1474 1477 1480 1482 1484 1486 1488 1490 1493 1496 1497 1498 1498 1499 1500 1500 1501 1500 1501 1502 1503 1503 1503
1407 1408 1411 1412 1415 1418 1418 1421 1425 1428 1431 1437 1443 1442 1437 1444 1454 1458 1460 1465 1469 1472 1475 1478 1480 1482 1484 1486 1488 1491 1492 1494 1495 1495 1495 1495 1496 1499 1499 1499 1500 1500 1500
1400 1402 1404 1407 1410 1412 1415 1419 1423 1425 1430 1434 1437 1438 1439 1442 1446 1453 1454 1460 1464 1467 1470 1472 1474 1477 1479 1482 1484 1487 1490 1491 1491 1491 1491 1493 1494 1495 1495 1496 1497 1498 1498
1394 1397 1399 1401 1404 1407 1409 1412 1418 1422 1425 1431 1431 1432 1432 1439 1442 1447 1449 1454 1458 1462 1465 1467 1470 1474 1476 1477 1480 1483 1485 1488 1489 1489 1488 1489 1491 1493 1495 1496 1496 1496 1495
1388 1391 1394 1396 1398 1400 1402 1406 1411 1416 1421 1426 1427 1429 1430 1436 1441 1446 1446 1449 1454 1460 1463 1465 1467 1472 1474 1475 1478 1481 1484 1486 1487 1487 1488 1489 1490 1491 1490 1492 1493 1494 1493
1384 1386 1387 1388 1390 1390 1394 1397 1403 1411 1414 1420 1425 1426 1428 1434 1441 1444 1443 1448 1452 1456 1461 1463 1465 1468 1471 1473 1476 1478 1480 1482 1484 1484 1485 1485 1485 1485 1485 1486 1486 1487 1487
1379 1380 1381 1381 1381 1381 1385 1389 1394 1402 1409 1415 1420 1423 1428 1433 1438 1440 1441 1446 1451 1453 1457 1460 1463 1465 1465 1468 1472 1474 1476 1478 1479 1481 1481 1481 1480 1482 1482 1481 1480 1479 1479